Content
SEND FEEDBACK

Daily
Averages
Monthly
Summary
United States of America

GRAND LAKE STREAM, MAINE


Home > North America > United States > Maine
Elevation: 122 meters     Latitude: 45 11N     Longitude: 067 47W

WEATHER
 
SELECT A DAY
Number of Records: 158,146;   Date Range: 1/1/95 - 7/22/14
 
SHARE

PRINT THIS DATA

[ ← Previous Day ]
WEATHER ALMANAC - 31 JANUARY, 2013
[ Next Day → ]
[ °F ]   °C
Weather ElementAverageHighLow
Temperature8.8 °C13.3 °C (7:00 am)1 °C (11:00 pm)
Dewpoint6.6 °C12.2 °C (7:00 am)-7.3 °C (11:00 pm)
Humidity85.1 %98 % (2:00 am)41 % (11:00 pm)
Barometer986.5 hPa997.6 hPa (1:00 am)975.3 hPa (2:00 pm)
Wind Speed23.5 km/h42.6 km/h (1:00 pm)
Wind Gust74 km/h (1:00 pm)
Weather ElementAverage
Wind DirectionSSW (214.8 °)

Weather ElementTotal
Precipitation12.45 mm
Heating Degree Days11.2 (Base 18.3)
Averaged from 31 records on 31 January, 2013
WEATHER CONDITIONS BREAKOUT
WIND DIRECTION BREAKOUT
WEATHER BY HOUR - 31 JANUARY, 2013
[ °F ]   °C
Local TimeTemperatureDewpointHumidityBarometerVisibilityWind DirectionWind SpeedGust SpeedPrecipitationEventsConditions
1:00 AM10.7 °C10.2 °C97 %997.6 hPaSSW (200°)11.1 km/h
2:00 AM10.6 °C10.6 °C98 %997 hPaSouth (190°)11.1 km/h
2:00 AM10.7 °C10.3 °C97 %997 hPaSouth (190°)11.1 km/h
3:00 AM10.9 °C10.4 °C97 %995.6 hPaSSW (200°)13 km/h
4:00 AM11.4 °C10.8 °C96 %994.9 hPaSSW (200°)18.5 km/h35.2 km/h
5:00 AM11.7 °C11.1 °C96 %993.6 hPaSouth (190°)24.1 km/h
5:00 AM11.9 °C11.2 °C95 %993.6 hPaSouth (190°)24.1 km/h50.1 km/h0.51 mm
6:00 AM13.1 °C12.1 °C94 %991.5 hPaSSW (200°)27.8 km/h57.5 km/h
7:00 AM13.3 °C12.2 °C93 %989.8 hPaSouth (190°)27.8 km/h62.9 km/h0.51 mm
8:00 AM12.8 °C11.7 °C92 %988.5 hPaSouth (190°)29.6 km/h
8:00 AM13 °C11.9 °C93 %988.5 hPaSouth (190°)29.6 km/h48.1 km/h0.51 mm
9:00 AM13.1 °C11.9 °C92 %986.5 hPaSouth (180°)33.3 km/h51.8 km/h1.27 mm
10:00 AM12.4 °C11.3 °C93 %983.7 hPaSouth (180°)35.2 km/h55.5 km/h2.03 mm
11:00 AM12.8 °C11.7 °C92 %981.4 hPaSouth (180°)33.3 km/h
11:00 AM12.8 °C11.8 °C94 %981.4 hPaSouth (180°)33.3 km/h66.6 km/h3.56 mm
12:00 PM12.9 °C11.8 °C93 %979.3 hPaSouth (190°)35.2 km/h59.2 km/h2.29 mm
1:00 PM12.8 °C11.8 °C94 %976 hPaSouth (180°)42.6 km/h74 km/h1.02 mm
2:00 PM11.7 °C10.6 °C89 %975.3 hPaSSW (200°)35.2 km/h
2:00 PM11.9 °C10.4 °C91 %975.3 hPaSSW (200°)35.2 km/h62.9 km/h
3:00 PM8.5 °C6.8 °C89 %977 hPaWest (260°)24.1 km/h42.6 km/h0.76 mm
4:00 PM6.7 °C4.1 °C84 %980 hPaWest (270°)18.5 km/h29.6 km/h
5:00 PM5.6 °C2.8 °C75 %982.1 hPaWSW (250°)18.5 km/h
5:00 PM5.8 °C2.7 °C81 %982.1 hPaWSW (250°)18.5 km/h29.6 km/h
6:00 PM4.3 °C0.8 °C78 %983.7 hPaWSW (250°)16.7 km/h
7:00 PM2.9 °C-0.2 °C80 %985.4 hPaWest (260°)11.1 km/h
8:00 PM2.2 °C-2.2 °C65 %986.5 hPaWSW (240°)13 km/h
8:00 PM2.4 °C-2 °C73 %986.5 hPaWSW (240°)13 km/h
9:00 PM1.9 °C-3 °C70 %987.5 hPaWest (260°)11.1 km/h
10:00 PM1.6 °C-5.3 °C61 %988.5 hPaWest (260°)22.2 km/h37 km/h
11:00 PM1.1 °C-7.2 °C41 %989.5 hPaWSW (250°)25.9 km/h
11:00 PM1 °C-7.3 °C54 %989.5 hPaWSW (250°)25.9 km/h46.3 km/h
Hourly data recorded from CWSS, located 0 kilometers away from Grand Lake Stream, Maine







STORIES FROM OUR PARTNERS